YAOGAN 9A

Satellite information

Favourite Embed

Satellite Type and Status

PAYLOADIN ORBIT

Key statistics

Satellite YAOGAN 9A at a glance.

Uptime

5543

Days in orbit

Revolutions

≈ 13.5

Per day

Orbit

LEO

Low Earth Orbit

Inclination

63.4

Latest

Satellite identification and parameters

Extended collection of information and parameters for YAOGAN 9A.

Object identification

Identified? True

Debris? False

Object name: YAOGAN 9A

International designator: 2010-009A

Object number (NORAD): 36413

Object ID (CCSDS): 36413

Country: PEOPLES REPUBLIC OF CHINA (PRC)

Current information (Y/N): Y

RCS size: LARGE

Orbital parameters

Period: 107.016 minutes

Inclination: 63.3708 deg

SMA: 7466.655 km

Apoapsis: 1463.926 km

Periapsis: 713.115 km

RAAN: 326.6569 deg

Eccentricy: 0.0502776

Argument of periapsis: 18.6922 deg

Mean anomaly: 343.1851 deg

Mean motion: 13.45592724 rev/day

Mean motion (dot): 0.00000028 rev/day2

B* drag term: 0.000093204 1/REarth

Two-line elements (TLE)

Creation date: May 8, 2025, 3:01 a.m.

Reference frame: TEME

Reference center: EARTH

Epoch: May 7, 2025, 7:38 p.m. UTC

TLE line 0: 0 YAOGAN 9A

TLE line 1: 1 36413U 10009A 25127.81852454 .00000028 00000-0 93204-4 0 9993

TLE line 2: 2 36413 63.3708 326.6569 0502776 18.6922 343.1851 13.45592724745427

Live tracking on map

Real-time ground track for satellite YAOGAN 9A.

In-orbit conjunctions

There are no conjunctions computed for YAOGAN 9A, at the moment. Check back to stay up to date, as we update our databases every day.

Go to all conjunctions

Associated space launch

YAOGAN 9A was lifted into orbit during the mission ‘Long March 4C | Yaogan-9’, on board a Long March 4C space rocket.

The launch took place on March 5, 2010, 4:55 a.m. from Launch Area 4 (SLS-2 / 603).

For more information about the launch, click the button.

Launch to space Long March 4C | Yaogan-9
Long March 4C | Yaogan-9

Agency: N/A

Status: Launch Successful

Launch date: March 5, 2010, 4:55 a.m. UTC

Rocket: Long March 4C

Launch pad: Launch Area 4 (SLS-2 / 603)

Location: Jiuquan Satellite Launch Center, People's Republic of China

...

Latest news about this satellite

There are no fresh news available about this satellite. Check back as we update our databases every day.


Newsletter sign-up

Weekly statistics, charts and insights to help you stay on top of the space industry.